Starlink 3741

operational
NORAD ID: 52619 Int'l Des: 2022-052 Owner: SPXS Country: US Constellation: starlink
LEOCIRCULAR

关于 Starlink 3741

正在加载描述...

实时位置

正在加载3D地球...

即将过境

高度历史

Altitude vs Time

uPlot chart will show altitude changes over time

两行轨道根数

1 52619U 22052X 25354.78319692 .00001665 00000-0 12266-3 0 9996
2 52619 53.2185 263.3330 0001561 82.1940 277.9229 15.08842235199078
Epoch: Dec 20, 2025 • Age: 8 hours

当前状态

高度 540.1 km
速度 7.59 km/s
星下点 2.84°N, 132.61°E
发射日期 May 14, 2022
运行时间 3.6 years
类型 internet

技术详情

分类 Payload
质量 297.00 kg
干质量 275.00 kg
总质量 297.00 kg
长度 0.20 m
直径 2.80 m
跨度 9.00 m
形状 Box + pan
制造商 SPXS
平台类型 Starlink
阶段状态 In Orbit
所有者/国家 SPXS/US

大型星座

Loading constellations...